This is the latest recevied weather packets stored in our database for station/object OZ1IEP-5. If no packets are shown the sender has not sent any weather packets the latest 10 day(s).
| Time | Temp. | Humidity | Pressure | Rain* | Wind** | Luminosity | Snow |
|---|---|---|---|---|---|---|---|
| 1787776209 | 15° C | 84% | 1023 hPa | 0 mm | - | 0 W/m² | - |
| 1787775606 | 15.56° C | 84% | 1023.1 hPa | 0 mm | - | 0 W/m² | - |
| 1787775006 | 15.56° C | 84% | 1023 hPa | 0 mm | - | 0 W/m² | - |
| 1787774408 | 15.56° C | 83% | 1023 hPa | 0 mm | - | 0 W/m² | - |
| 1787773806 | 16.11° C | 82% | 1023.1 hPa | 0 mm | - | 0 W/m² | - |
| 1787773206 | 16.11° C | 82% | 1023.1 hPa | 0 mm | - | 0 W/m² | - |
| 1787772609 | 16.11° C | 81% | 1023 hPa | 0 mm | - | 0 W/m² | - |
| 1787772005 | 16.67° C | 81% | 1023 hPa | 0 mm | - | 0 W/m² | - |
| 1787771406 | 16.67° C | 80% | 1023 hPa | 0 mm | - | 0 W/m² | - |
| 1787770820 | 16.67° C | 80% | 1023.1 hPa | 0 mm | - | 0 W/m² | - |
| 1787770206 | 17.22° C | 79% | 1023 hPa | 0 mm | - | 0 W/m² | - |
| 1787769606 | 17.22° C | 79% | 1023 hPa | 0 mm | - | 0 W/m² | - |
| 1787769008 | 17.78° C | 78% | 1022.9 hPa | 0 mm | - | 0 W/m² | - |
| 1787768406 | 18.33° C | 77% | 1022.7 hPa | 0 mm | - | 0 W/m² | - |
| 1787767806 | 18.33° C | 76% | 1022.6 hPa | 0 mm | - | 5 W/m² | - |
| 1787767208 | 18.89° C | 75% | 1022.6 hPa | 0 mm | - | 11 W/m² | - |
| 1787766606 | 18.89° C | 74% | 1022.6 hPa | 0 mm | - | 14 W/m² | - |
| 1787766006 | 19.44° C | 73% | 1022.6 hPa | 0 mm | - | 21 W/m² | - |
| 1787765409 | 19.44° C | 72% | 1022.6 hPa | 0 mm | - | 30 W/m² | - |
| 1787764806 | 20° C | 72% | 1022.6 hPa | 0 mm | - | 40 W/m² | - |
| 1787764206 | 20° C | 71% | 1022.5 hPa | 0 mm | - | 67 W/m² | - |
| 1787763608 | 20° C | 70% | 1022.5 hPa | 0 mm | - | 98 W/m² | - |
| 1787763006 | 20° C | 70% | 1022.5 hPa | 0 mm | - | 65 W/m² | - |
| 1787762406 | 20° C | 69% | 1022.5 hPa | 0 mm | - | 49 W/m² | - |
| 1787761808 | 20.56° C | 68% | 1022.5 hPa | 0 mm | - | 49 W/m² | - |
* Rain latest hour (hover to see other rain measurements)
** Current wind speed in m/s (hover to see current wind gust speed)